| time (UTC) | temp C | wind direction | speed KPH | gust KPH | rain 1hr cm | rain 24hr cm | rain mn cm | humidity % | barometer mb |
| 20260831080108 | 19 | 0 | 0.0 | 3.2 | 0.00 | 0.00 | 0.00 | 45 | 1020.5 |
| 20260831074609 | 18 | 114 | 3.2 | 9.7 | 0.00 | 0.00 | 0.00 | 47 | 1020.7 |
| 20260831073054 | 18 | 0 | 0.0 | 3.2 | 0.00 | 0.00 | 0.00 | 50 | 1020.9 |
| 20260831071558 | 19 | 115 | 0.0 | 6.4 | 0.00 | 0.00 | 0.00 | 52 | 1020.9 |
| 20260831070112 | 18 | 0 | 0.0 | 1.6 | 0.00 | 0.00 | 0.00 | 50 | 1021.1 |
| 20260831064602 | 19 | 0 | 0.0 | 3.2 | 0.00 | 0.00 | 0.00 | 52 | 1021.0 |
| 20260831063100 | 18 | 115 | 0.0 | 4.8 | 0.00 | 0.00 | 0.00 | 54 | 1021.4 |
| 20260831061557 | 20 | 115 | 1.6 | 3.2 | 0.00 | 0.00 | 0.00 | 46 | 1021.7 |
| 20260831060059 | 20 | 115 | 1.6 | 4.8 | 0.00 | 0.00 | 0.00 | 43 | 1021.6 |
| 20260831054604 | 20 | 115 | 1.6 | 3.2 | 0.00 | 0.00 | 0.00 | 49 | 1021.7 |
| 20260831053055 | 21 | 0 | 0.0 | 6.4 | 0.00 | 0.00 | 0.00 | 40 | 1022.0 |
| 20260831051601 | 20 | 114 | 6.4 | 19.3 | 0.00 | 0.00 | 0.00 | 41 | 1022.0 |
| 20260831050103 | 20 | 100 | 3.2 | 6.4 | 0.00 | 0.00 | 0.00 | 49 | 1022.1 |
| 20260831044602 | 20 | 100 | 1.6 | 11.3 | 0.00 | 0.00 | 0.00 | 53 | 1022.5 |
| 20260831043056 | 19 | 72 | 3.2 | 8.0 | 0.00 | 0.00 | 0.00 | 54 | 1022.1 |
| 20260831041604 | 19 | 0 | 0.0 | 3.2 | 0.00 | 0.00 | 0.00 | 52 | 1021.7 |
| 20260831034557 | 18 | 0 | 0.0 | 1.6 | 0.00 | 0.00 | 0.00 | 59 | 1021.5 |
| 20260831033102 | 18 | 0 | 0.0 | 1.6 | 0.00 | 0.00 | 0.00 | 61 | 1021.4 |
| 20260831031554 | 18 | 0 | 0.0 | 0.0 | 0.00 | 0.00 | 0.00 | 61 | 1021.6 |
| 20260831030106 | 18 | 0 | 0.0 | 0.0 | 0.00 | 0.00 | 0.00 | 62 | 1021.4 |
| 20260831024553 | 18 | 0 | 0.0 | 0.0 | 0.00 | 0.00 | 0.00 | 64 | 1020.9 |
| 20260831023047 | 18 | 314 | 0.0 | 3.2 | 0.00 | 0.00 | 0.00 | 61 | 1020.9 |
| 20260831021600 | 18 | 0 | 0.0 | 0.0 | 0.00 | 0.00 | 0.00 | 63 | 1020.9 |
| 20260831020106 | 18 | 0 | 0.0 | 3.2 | 0.00 | 0.00 | 0.00 | 63 | 1020.7 |
| 20260831014608 | 19 | 0 | 0.0 | 3.2 | 0.00 | 0.00 | 0.00 | 60 | 1020.5 |
| 20260831013054 | 19 | 0 | 0.0 | 0.0 | 0.00 | 0.00 | 0.00 | 61 | 1020.2 |
| 20260831011612 | 20 | 0 | 0.0 | 4.8 | 0.00 | 0.00 | 0.00 | 58 | 1020.3 |
| 20260831004559 | 20 | 315 | 4.8 | 8.0 | 0.00 | 0.00 | 0.00 | 63 | 1020.3 |
| 20260831003056 | 21 | 319 | 1.6 | 6.4 | 0.00 | 0.00 | 0.00 | 60 | 1020.4 |
| 20260831001602 | 21 | 321 | 4.8 | 9.7 | 0.00 | 0.00 | 0.00 | 60 | 1020.2 |
| 20260831000050 | 21 | 319 | 6.4 | 11.3 | 0.00 | 0.00 | 0.00 | 57 | 1020.3 |
| 20260830234558 | 21 | 319 | 3.2 | 12.9 | 0.00 | 0.00 | 0.00 | 57 | 1020.3 |
| 20260830233103 | 21 | 319 | 8.0 | 17.7 | 0.00 | 0.00 | 0.00 | 55 | 1020.2 |
| 20260830231609 | 22 | 315 | 6.4 | 12.9 | 0.00 | 0.00 | 0.00 | 52 | 1020.1 |
| 20260830230106 | 22 | 141 | 3.2 | 6.4 | 0.00 | 0.00 | 0.00 | 46 | 1020.1 |
| 20260830224636 | 23 | 141 | 3.2 | 6.4 | 0.00 | 0.00 | 0.00 | 40 | 1020.5 |
| 20260830223105 | 22 | 0 | 1.6 | 8.0 | 0.00 | 0.00 | 0.00 | 40 | 1020.4 |
| 20260830221607 | 21 | 135 | 6.4 | 11.3 | 0.00 | 0.00 | 0.00 | 43 | 1020.5 |
| 20260830220104 | 21 | 120 | 3.2 | 14.5 | 0.00 | 0.00 | 0.00 | 45 | 1020.7 |
| 20260830214558 | 20 | 120 | 8.0 | 20.9 | 0.00 | 0.00 | 0.00 | 47 | 1020.9 |
| 20260830213102 | 19 | 74 | 19.3 | 33.8 | 0.00 | 0.00 | 0.00 | 51 | 1020.9 |
| 20260830211559 | 20 | 44 | 30.6 | 48.3 | 0.00 | 0.00 | 0.00 | 48 | 1020.7 |
| 20260830210104 | 20 | 110 | 16.1 | 40.2 | 0.00 | 0.00 | 0.00 | 48 | 1020.9 |
| 20260830204559 | 20 | 93 | 29.0 | 49.9 | 0.00 | 0.00 | 0.00 | 47 | 1020.7 |
| 20260830203059 | 23 | 117 | 22.5 | 40.2 | 0.00 | 0.00 | 0.00 | 42 | 1020.2 |
| 20260830201558 | 25 | 84 | 12.9 | 27.4 | 0.00 | 0.00 | 0.00 | 36 | 1019.5 |
| 20260830200054 | 27 | 167 | 3.2 | 8.0 | 0.00 | 0.00 | 0.00 | 33 | 1019.4 |
| 20260830194551 | 27 | 257 | 0.0 | 4.8 | 0.00 | 0.00 | 0.00 | 34 | 1018.9 |
| 20260830193057 | 27 | 323 | 1.6 | 4.8 | 0.00 | 0.00 | 0.00 | 33 | 1018.5 |
| 20260830191556 | 27 | 269 | 1.6 | 6.4 | 0.00 | 0.00 | 0.00 | 33 | 1018.8 |
| 20260830190103 | 27 | 311 | 0.0 | 4.8 | 0.00 | 0.00 | 0.00 | 35 | 1018.9 |
| 20260830184554 | 26 | 309 | 1.6 | 4.8 | 0.00 | 0.00 | 0.00 | 35 | 1018.9 |
| 20260830183057 | 26 | 312 | 1.6 | 4.8 | 0.00 | 0.00 | 0.00 | 36 | 1019.2 |
| 20260830181549 | 26 | 314 | 0.0 | 4.8 | 0.00 | 0.00 | 0.00 | 37 | 1019.5 |
| 20260830180103 | 26 | 316 | 0.0 | 4.8 | 0.00 | 0.00 | 0.00 | 36 | 1019.8 |
| 20260830174557 | 26 | 270 | 3.2 | 11.3 | 0.00 | 0.00 | 0.00 | 35 | 1019.8 |
| 20260830173055 | 26 | 313 | 1.6 | 4.8 | 0.00 | 0.00 | 0.00 | 37 | 1020.1 |
| 20260830171603 | 26 | 269 | 1.6 | 6.4 | 0.00 | 0.00 | 0.00 | 36 | 1020.2 |
| 20260830170101 | 25 | 297 | 1.6 | 4.8 | 0.00 | 0.00 | 0.00 | 37 | 1020.3 |
| 20260830164604 | 25 | 261 | 1.6 | 8.0 | 0.00 | 0.00 | 0.00 | 37 | 1020.4 |
| 20260830163053 | 25 | 266 | 0.0 | 6.4 | 0.00 | 0.00 | 0.00 | 35 | 1020.4 |
| 20260830161613 | 24 | 0 | 0.0 | 3.2 | 0.00 | 0.00 | 0.00 | 38 | 1020.5 |
| 20260830154559 | 22 | 111 | 1.6 | 11.3 | 0.00 | 0.00 | 0.00 | 43 | 1020.6 |
| 20260830153103 | 21 | 113 | 1.6 | 3.2 | 0.00 | 0.00 | 0.00 | 44 | 1020.5 |
| 20260830151607 | 21 | 94 | 1.6 | 4.8 | 0.00 | 0.00 | 0.00 | 47 | 1020.5 |
| 20260830150059 | 21 | 94 | 0.0 | 3.2 | 0.00 | 0.00 | 0.00 | 46 | 1020.4 |
| 20260830144555 | 21 | 94 | 0.0 | 1.6 | 0.00 | 0.00 | 0.00 | 48 | 1020.3 |
| 20260830143109 | 20 | 0 | 0.0 | 1.6 | 0.00 | 0.00 | 0.00 | 48 | 1020.2 |
| 20260830141556 | 20 | 0 | 0.0 | 1.6 | 0.00 | 0.00 | 0.00 | 49 | 1020.0 |
| 20260830140053 | 19 | 90 | 1.6 | 4.8 | 0.00 | 0.00 | 0.00 | 50 | 1020.2 |
| 20260830134555 | 18 | 86 | 0.0 | 1.6 | 0.00 | 0.00 | 0.00 | 50 | 1020.2 |
| 20260830133055 | -17 | 0.0 | 0.0 | 0.00 | 0.00 | 0.00 | 1020.3 | ||
| 20260830131554 | -17 | 0.0 | 0.0 | 0.00 | 0.00 | 0.00 | 1020.1 | ||
| 20260830130108 | -17 | 0.0 | 0.0 | 0.00 | 0.00 | 0.00 | 1019.9 | ||
| 20260830124558 | -17 | 0.0 | 0.0 | 0.00 | 0.00 | 0.00 | 1019.7 | ||
| 20260830123109 | -17 | 0.0 | 0.0 | 0.00 | 0.00 | 0.00 | 1019.5 | ||
| 20260830121602 | -17 | 0.0 | 0.0 | 0.00 | 0.00 | 0.00 | 1019.4 | ||
| 20260830120059 | 17 | 0.0 | 1.6 | 0.00 | 0.00 | 0.00 | 100 | 1019.0 | |
| 20260830114606 | 18 | 0 | 0.0 | 3.2 | 0.00 | 0.00 | 0.00 | 49 | 1018.8 |
| 20260830113059 | 18 | 0 | 0.0 | 1.6 | 0.00 | 0.00 | 0.00 | 48 | 1018.6 |
| 20260830111554 | 18 | 99 | 0.0 | 1.6 | 0.00 | 0.00 | 0.00 | 48 | 1018.7 |
| 20260830110059 | 17 | 0 | 0.0 | 4.8 | 0.00 | 0.00 | 0.00 | 50 | 1018.8 |
| 20260830104555 | 18 | 99 | 0.0 | 6.4 | 0.00 | 0.00 | 0.00 | 49 | 1019.1 |
| 20260830103058 | 18 | 99 | 0.0 | 3.2 | 0.00 | 0.00 | 0.00 | 48 | 1019.0 |
| 20260830101600 | 18 | 99 | 0.0 | 1.6 | 0.00 | 0.00 | 0.00 | 48 | 1018.8 |
| 20260830100058 | 18 | 0 | 0.0 | 1.6 | 0.00 | 0.00 | 0.00 | 48 | 1018.8 |
| 20260830094556 | 18 | 0 | 0.0 | 6.4 | 0.00 | 0.00 | 0.00 | 48 | 1018.9 |
| 20260830093112 | 18 | 82 | 0.0 | 9.7 | 0.00 | 0.00 | 0.00 | 47 | 1018.9 |
| 20260830091558 | 18 | 0 | 0.0 | 3.2 | 0.00 | 0.00 | 0.00 | 48 | 1018.7 |
| 20260830090104 | 18 | 98 | 0.0 | 3.2 | 0.00 | 0.00 | 0.00 | 48 | 1018.8 |
| 20260830084605 | 18 | 0 | 0.0 | 1.6 | 0.00 | 0.00 | 0.00 | 52 | 1018.8 |
| 20260830083057 | 18 | 70 | 1.6 | 6.4 | 0.00 | 0.00 | 0.00 | 51 | 1019.2 |
| 20260830081554 | 18 | 335 | 1.6 | 4.8 | 0.00 | 0.00 | 0.00 | 51 | 1018.9 |